AlSat 1N (41789 NORAD) Tracking and Keplerian Element Data

This shows tracking and keplerian element data for the satellite.

Feedback or suggestion? Click here.




ElementValue
Catalog41789
NameAlSat 1N
Epoch Orbit13674
Epoch Day108.83765459
Epoch Year2019
RAAN171.6066
Inclination98.0753
Eccentricity0.0027778
Argument of Perigee202.4586
Mean Anonmoly157.5385
Mean Motion14.64230628
Decay Rate9.6E-07
L11 41789U 16059G 19108.83765459 .00000096 00000-0 27321-4 0 9990
L22 41789 98.0753 171.6066 0027778 202.4586 157.5385 14.64230628136749

Live tracking and technical data element details for AlSat 1N (NORAD 41789). AlSat 1N can be tracked NOW for your location showing map with azimuth and elevation plus other details from your city location.

Track the satellite on the map from your city or location and see movement details for azimuth, elevation, latitude, longitude, range, height, and movement on the map or in text.







IsCatalogInMostPopularTable: catalog: 41789, numindb: 206
Update: records affected: 1



GetName: 41789 AlSat 1N

Hit Count: updated at: Wed, 24 Apr 2019 17:55:24 GMT